Location: Bas Lanzent
(48.1360°N, 3.5871°W)
Time: 05:40:45
(UTC+00:00)

Daily predictions for brighter satellites

Satellite Brightness Start Highest point End
(mag) Time Altitude Azimuth Time Altitude Azimuth Time Altitude Azimuth
Cosmos 2333 Rocket 4.3 03:19:49 20° NNE 03:19:49 20° NNE 03:21:32 10° NNE
ATLAS 2AS CENTAUR R/B 4.4 03:26:54 25° NNW 03:27:47 26° N 03:34:01 10° NE
ATLAS CENTAUR R/B 4.0 03:46:18 21° ENE 03:46:18 21° ENE 03:48:03 10° NE
Lacrosse 5 3.6 03:47:38 29° ENE 03:47:38 29° ENE 03:50:24 10° E
Cosmos 2237 Rocket 3.5 03:48:41 34° NNE 03:48:41 34° NNE 03:51:47 10° NNE
NOSS 3-1 (C) 4.4 03:53:58 56° SSE 03:53:58 56° SSE 04:00:30 10° SSE
BREEZE-M DEB (TANK) 4.0 03:54:29 81° NNW 03:54:35 81° NNW 03:59:21 10° ENE
MSX 4.5 03:49:37 10° NNE 03:54:27 52° ENE 03:54:27 52° ENE
Cosmos 2219 Rocket 4.0 03:58:46 22° N 03:58:46 22° N 04:01:05 10° NNE
CZ-2C R/B 3.8 03:53:57 10° NNE 03:58:43 35° E 03:59:15 34° ESE
CZ-4C R/B 3.1 04:02:10 43° NNE 04:02:10 43° NNE 04:06:32 10° NE
Meteor 2-10 Rocket 4.5 04:03:59 44° E 04:04:03 44° E 04:08:58 10° NNE
Cosmos 2360 Rocket 4.5 04:10:35 13° NNW 04:10:35 13° NNW 04:11:52 10° N
COSMOS 2428 4.4 04:16:33 23° N 04:16:33 23° N 04:19:18 10° NNE
Cosmos 1934 Rocket 4.0 04:09:01 10° N 04:15:21 81° E 04:21:43 10° S
Cosmos 1943 Rocket 3.2 04:13:12 23° N 04:16:14 42° NE 04:21:27 10° SE
USA 215 3.5 04:16:06 10° NE 04:22:25 54° NNW 04:22:54 52° NW
SL-16 R/B 2.2 04:28:22 74° SE 04:28:38 76° ESE 04:34:20 10° NNE
Cosmos 1605 Rocket 4.0 04:31:15 10° N 04:37:33 79° E 04:43:42 10° SSE
USA 229 DEB 4.4 04:41:12 39° SSW 04:41:12 39° SSW 04:46:27 10° S
USA 229 4.4 04:41:15 39° SSW 04:41:15 39° SSW 04:46:33 10° S
Cosmos 2369 Rocket 3.0 04:35:12 11° NNW 04:40:40 52° NE 04:46:14 10° SE
NOSS 3-1 (A) 4.0 04:44:11 46° WNW 04:46:26 61° WSW 04:54:52 10° SSE
Meteor 2-3 Rocket 3.8 04:51:19 10° N 04:57:05 80° ENE 05:02:53 10° SSE
Cosmos 2333 Rocket 4.0 05:01:49 16° NNW 05:01:49 16° NNW 05:04:50 10° N
IDEFIX/ARIANE 42P 3.9 04:59:51 10° N 05:02:41 25° NNW 05:02:41 25° NNW
Cosmos 1727 Rocket 4.2 04:59:25 10° S 05:05:35 73° E 05:11:45 10° NNE
Cosmos 1484 Rocket 3.4 05:02:35 10° NNE 05:06:29 57° E 05:10:24 10° S
Cosmos 2251 Rocket 3.5 05:08:58 51° WSW 05:09:50 58° WNW 05:15:06 10° NNE
SKYMED 2 3.8 05:08:13 10° SSE 05:12:31 69° ENE 05:16:52 10° N
STARLINK-1153 4.5 05:14:21 27° NNE 05:14:21 27° NNE 05:16:20 10° ENE
Cosmos 1339 Rocket 4.3 05:08:04 12° SSW 05:13:41 68° WNW 05:19:48 10° N
STARLINK-1180 4.5 05:14:33 27° NNE 05:14:33 27° NNE 05:16:34 10° ENE
STARLINK-1174 4.5 05:15:00 27° NNE 05:15:00 27° NNE 05:17:00 10° ENE
STARLINK-1139 4.4 05:15:13 27° NNE 05:15:13 27° NNE 05:17:14 10° ENE
PAYLOAD A 4.2 05:09:57 10° N 05:14:35 45° WNW 05:14:39 45° WNW
NOSS 2-1 (C) 3.7 05:15:15 43° NNW 05:15:15 43° NNW 05:18:27 10° NNE
STARLINK-1133 4.4 05:15:25 27° NNE 05:15:25 27° NNE 05:17:27 10° ENE
STARLINK-1151 4.4 05:15:40 27° NNE 05:15:40 27° NNE 05:17:42 10° ENE
STARLINK-1160 4.4 05:16:18 27° NNE 05:16:18 27° NNE 05:18:22 10° ENE
STARLINK-1161 4.4 05:16:32 27° NNE 05:16:32 27° NNE 05:18:36 10° ENE
STARLINK-1145 4.4 05:16:44 27° NNE 05:16:44 27° NNE 05:18:49 10° ENE
STARLINK-1172 4.4 05:16:57 28° NNE 05:16:57 28° NNE 05:19:02 10° ENE
STARLINK-1162 4.2 05:17:03 32° N 05:17:03 32° N 05:19:39 10° ENE
STARLINK-1182 4.4 05:17:23 28° NNE 05:17:23 28° NNE 05:19:30 10° ENE
STARLINK-1164 4.4 05:17:35 28° NNE 05:17:35 28° NNE 05:19:43 10° ENE
STARLINK-1168 4.4 05:17:49 28° NNE 05:17:49 28° NNE 05:19:57 10° ENE
STARLINK-1183 4.3 05:18:27 28° NNE 05:18:27 28° NNE 05:20:37 10° ENE
Cosmos 1500 Rocket 3.5 05:13:37 10° N 05:18:07 87° E 05:22:31 10° S
STARLINK-1181 4.3 05:18:40 28° NNE 05:18:40 28° NNE 05:20:50 10° ENE
STARLINK-1157 4.2 05:18:51 32° N 05:18:51 32° N 05:21:33 10° ENE
NOSS 2-1 (D) 3.7 05:19:13 41° NNW 05:19:13 41° NNW 05:22:30 10° NNE
STARLINK-1196 4.3 05:19:20 28° NNE 05:19:20 28° NNE 05:21:32 10° ENE
CZ-4B R/B 2.5 05:15:33 10° NNE 05:19:17 85° WNW 05:20:20 45° SSW
STARLINK-1186 4.3 05:19:46 28° NNE 05:19:46 28° NNE 05:21:59 10° ENE
STARLINK-1185 4.3 05:19:58 28° NNE 05:19:58 28° NNE 05:22:11 10° ENE
STARLINK-1175 4.3 05:20:12 28° NNE 05:20:12 28° NNE 05:22:26 10° ENE
STARLINK-1147 4.3 05:20:24 28° NNE 05:20:24 28° NNE 05:22:39 10° ENE
STARLINK-1146 4.3 05:20:36 29° NNE 05:20:36 29° NNE 05:22:53 10° ENE
STARLINK-1152 4.3 05:20:50 29° NNE 05:20:50 29° NNE 05:23:06 10° ENE
STARLINK-1195 4.2 05:21:03 29° NNE 05:21:03 29° NNE 05:23:20 10° ENE
STARLINK-1159 4.1 05:20:51 32° N 05:20:51 32° N 05:23:37 10° ENE
STARLINK-1137 4.2 05:21:16 29° NNE 05:21:16 29° NNE 05:23:33 10° ENE
STARLINK-1142 4.2 05:21:30 29° NNE 05:21:30 29° NNE 05:23:47 10° ENE
ATLAS 2AS CENTAUR R/B 4.3 05:14:24 10° NW 05:21:16 32° NNE 05:27:44 10° E
STARLINK-1127 4.2 05:21:42 29° NNE 05:21:42 29° NNE 05:24:00 10° ENE
PSLV R/B 4.4 05:17:47 10° NNE 05:21:27 53° E 05:25:09 10° S
STARLINK-1184 4.2 05:21:56 29° NNE 05:21:56 29° NNE 05:24:14 10° ENE
STARLINK-1193 4.2 05:22:08 29° NNE 05:22:08 29° NNE 05:24:28 10° ENE
STARLINK-1194 4.2 05:22:21 29° N 05:22:21 29° N 05:24:40 10° ENE
ATLAS CENTAUR R/B 2.1 05:22:30 39° NW 05:22:51 40° NW 05:27:02 10° NNE
STARLINK-1171 4.1 05:22:58 32° N 05:22:58 32° N 05:25:50 10° ENE
Okean O Rocket 3.8 05:20:16 10° NE 05:24:02 27° E 05:27:47 10° SSE
STARLINK-1155 4.1 05:24:44 32° N 05:24:46 32° N 05:27:41 10° ENE
STARLINK-1166 4.1 05:26:53 32° N 05:27:00 32° N 05:29:55 10° ENE
Meteor 1-27 4.1 05:21:34 10° S 05:27:08 89° WNW 05:32:44 10° NNE
Cosmos 2100 Rocket 4.1 05:20:57 10° N 05:27:13 78° E 05:33:23 10° SSE
Lacrosse 5 1.9 05:26:51 36° WNW 05:28:43 60° SW 05:33:42 10° SE
STARLINK-1165 4.0 05:28:43 32° N 05:28:56 32° N 05:31:52 10° ENE
STARLINK-1149 4.1 05:29:32 26° N 05:29:32 26° N 05:31:41 10° ENE
Cosmos 1743 Rocket 3.4 05:25:37 10° NNW 05:29:55 65° W 05:34:12 10° S
H-2A R/B 2.6 05:26:34 10° N 05:30:52 58° WNW 05:34:00 18° SW
Cosmos 2237 Rocket 3.5 05:30:31 21° NW 05:30:58 21° NW 05:35:11 10° N
STARLINK-1169 4.0 05:30:43 31° NNW 05:31:01 32° N 05:33:56 10° ENE
STARLINK-1178 4.0 05:32:37 31° NNW 05:33:00 32° N 05:35:56 10° ENE
Meteor 1-31 Rocket 3.0 05:30:40 10° N 05:34:18 45° WNW 05:34:48 42° W
STARLINK-1118 4.4 05:33:41 20° S 05:34:27 23° SE 05:36:35 10° E
GEOS 3 Rocket 3.6 05:29:23 10° NE 05:34:42 76° NW 05:38:29 20° SW
STARLINK-1132 4.0 05:34:49 28° N 05:34:55 28° N 05:37:24 10° ENE
STARLINK-1120 4.0 05:34:28 30° NNW 05:34:57 32° N 05:37:52 10° ENE
ADEOS 4.4 05:31:58 10° N 05:36:26 29° WNW 05:37:07 28° WNW
CZ-2C R/B 3.1 05:32:12 10° N 05:36:55 36° WNW 05:38:39 28° WSW
Cosmos 1356 Rocket 4.1 05:37:24 33° WNW 05:37:24 33° WNW 05:40:50 10° N
STARLINK-1131 4.1 05:36:36 30° NNW 05:37:10 32° N 05:40:06 10° ENE
STARLINK-1150 4.0 05:37:17 27° N 05:37:28 27° N 05:39:53 10° ENE
STARLINK-1124 4.2 05:36:35 22° S 05:37:47 32° SE 05:40:28 10° ENE
Cosmos 2061 Rocket 4.5 05:32:00 10° N 05:38:17 64° ENE 05:44:27 10° SSE
STARLINK-1163 4.0 05:38:34 27° N 05:38:50 28° N 05:41:18 10° ENE
STARLINK-1190 4.1 05:38:38 29° NNW 05:39:18 32° N 05:42:14 10° ENE
STARLINK-1077 4.5 05:38:12 18° S 05:39:43 28° SE 05:42:18 10° E
STARLINK-1075 4.5 05:38:25 18° S 05:39:56 28° SE 05:42:31 10° E
STARLINK-1093 4.5 05:38:37 18° S 05:40:10 28° SE 05:42:44 10° E
STARLINK-1074 4.5 05:38:50 18° S 05:40:22 28° SE 05:42:58 10° E
STARLINK-1173 3.9 05:40:14 27° N 05:40:32 27° N 05:42:58 10° ENE
ADEOS Rocket 3.8 05:34:28 10° SE 05:40:36 60° ENE 05:47:27 10° N
STARLINK-1087 4.5 05:39:04 18° S 05:40:37 29° SE 05:43:13 10° E
STARLINK-1088 4.5 05:39:17 18° S 05:40:50 29° SE 05:43:25 10° E
STARLINK-1177 3.9 05:40:37 27° N 05:40:55 27° N 05:43:20 10° ENE
STARLINK-1115 4.5 05:39:29 18° SSW 05:41:03 29° SE 05:43:39 10° E
STARLINK-1076 4.4 05:39:43 18° SSW 05:41:17 29° SE 05:43:53 10° E
STARLINK-1092 4.4 05:39:56 18° SSW 05:41:30 29° SE 05:44:06 10° E
Cosmos 2219 Rocket 4.3 05:40:28 10° NW 05:41:38 11° NNW 05:42:57 10° NNW
STARLINK-1080 4.4 05:40:09 18° SSW 05:41:43 29° SE 05:44:20 10° E
STARLINK-1090 4.4 05:40:22 18° SSW 05:41:57 29° SE 05:44:33 10° E
STARLINK-1167 3.9 05:41:41 26° NNW 05:42:04 27° N 05:44:29 10° ENE
STARLINK-1089 4.4 05:40:34 18° SSW 05:42:10 29° SE 05:44:47 10° E
STARLINK-1107 4.4 05:40:47 18° SSW 05:42:23 30° SE 05:45:00 10° E
STARLINK-1109 4.4 05:40:59 18° SSW 05:42:36 30° SE 05:45:13 10° ENE
STARLINK-1091 4.4 05:41:14 18° SSW 05:42:51 30° SE 05:45:29 10° ENE
STARLINK-1072 4.4 05:41:27 17° SSW 05:43:04 30° SE 05:45:42 10° ENE
STARLINK-1096 4.4 05:41:41 18° SSW 05:43:18 30° SE 05:45:56 10° ENE
STARLINK-1079 4.4 05:41:53 17° SSW 05:43:31 30° SE 05:46:09 10° ENE
Cosmos 1459 Rocket 3.9 05:37:24 10° N 05:43:36 88° WSW 05:49:51 10° S
STARLINK-1116 4.4 05:42:06 17° SSW 05:43:45 30° SE 05:46:23 10° ENE
STARLINK-1094 4.3 05:42:32 17° SSW 05:44:12 31° SE 05:46:50 10° ENE
STARLINK-1117 4.3 05:42:44 17° SSW 05:44:25 31° SE 05:47:03 10° ENE
Cosmos 1842 Rocket 3.8 05:40:14 11° SSW 05:44:25 47° WNW 05:48:47 10° N
STARLINK-1078 4.3 05:42:57 17° SSW 05:44:38 31° SE 05:47:17 10° ENE
STARLINK-1108 4.3 05:43:10 17° SSW 05:44:51 31° SE 05:47:30 10° ENE
STARLINK-1071 4.3 05:43:24 17° SSW 05:45:05 31° SE 05:47:44 10° ENE
STARLINK-1110 4.3 05:43:36 17° SSW 05:45:19 31° SE 05:47:58 10° ENE
STARLINK-1122 4.3 05:44:02 17° SSW 05:45:45 32° SE 05:48:24 10° ENE
STARLINK-1126 4.3 05:44:15 17° SSW 05:45:59 32° SE 05:48:38 10° ENE
STARLINK-1082 4.3 05:44:28 17° SSW 05:46:12 32° SE 05:48:52 10° ENE
Meteor 2-10 Rocket 4.4 05:45:09 26° W 05:46:16 28° WNW 05:50:42 10° N
BREEZE M DEB (TANK) 3.2 05:44:47 31° WNW 05:46:17 80° N 05:54:11 10° E
TELKOM 3 3.2 05:46:25 48° NNE 05:46:25 48° NNE 05:48:22 10° ENE
STARLINK-1100 4.3 05:44:41 17° SSW 05:46:25 32° SE 05:49:05 10° ENE
STARLINK-1083 4.3 05:44:54 17° SSW 05:46:39 32° SE 05:49:20 10° ENE
STARLINK-1125 4.3 05:45:08 17° SSW 05:46:53 32° SE 05:49:33 10° ENE
STARLINK-1136 4.0 05:46:27 25° NNW 05:47:05 28° N 05:49:35 10° ENE
METEOR-M 4.1 05:42:49 10° NNE 05:48:12 89° WNW 05:53:33 10° SSW
Shenzhou-11 Module 4.4 05:46:59 10° S 05:48:19 13° SSE 05:49:44 10° SE
CZ-4C R/B 3.7 05:47:21 18° WNW 05:50:09 25° NNW 05:55:30 10° NE
Cosmos 1400 Rocket 4.4 05:49:33 10° SSE 05:53:16 38° E 05:57:04 10° NNE
Cosmos 1869 3.2 05:51:13 10° SSW 05:55:11 68° W 05:59:10 10° N
Cosmos 407 Rocket 3.5 05:50:56 10° SSW 05:56:16 81° WNW 06:01:35 10° NNE
ALOS 2.2 05:52:26 10° N 05:57:05 67° WNW 06:01:43 10° SSW
STARLINK-1129 4.1 05:57:12 21° NW 05:58:45 33° N 06:01:44 10° ENE
Cosmos 921 Rocket 3.0 05:55:22 10° NNW 05:59:46 60° WSW 06:04:03 10° S
Cosmos 1943 Rocket 2.7 05:54:57 10° NW 05:59:53 35° WSW 06:04:48 10° S
Cosmos 1140 Rocket 3.6 05:55:01 10° SSW 06:00:15 81° ESE 06:05:32 10° NNE
COSMO-SKYMED 1 3.0 05:56:34 10° SSW 06:00:38 39° W 06:04:45 10° NNW
STARLINK-1134 4.1 05:59:02 20° NW 06:00:40 33° N 06:03:39 10° ENE
USA 116 3.1 05:57:45 10° S 06:00:55 61° WSW 06:03:59 10° NNW
Cosmos 1802 Rocket 4.0 05:54:47 10° N 06:01:15 80° W 06:07:39 10° S
SJ-12 4.0 05:59:01 10° N 06:03:03 53° WNW 06:07:05 10° SSW
STARLINK-1135 4.1 06:01:19 19° NW 06:03:04 34° N 06:06:03 10° ENE
USA 215 4.0 05:58:44 10° ENE 06:04:46 41° N 06:10:15 12° WNW
STARLINK-1141 4.1 06:03:27 19° NW 06:05:17 34° N 06:08:16 10° ENE
Cosmos 1633 Rocket 3.8 06:01:23 10° N 06:05:42 55° ENE 06:10:00 10° SSE
STARLINK-1140 4.1 06:05:24 18° NW 06:07:20 34° N 06:10:20 10° ENE
Cosmos 1666 Rocket 3.9 06:02:56 10° N 06:07:24 70° ENE 06:11:47 10° SSE
STARLINK-1170 3.9 06:06:28 18° NW 06:07:50 28° N 06:10:12 10° ENE
STARLINK-1156 4.1 06:07:28 17° NW 06:09:29 34° N 06:12:30 10° ENE
SL-08 R/B 4.5 06:05:03 10° N 06:11:15 89° E 06:17:21 10° S
Cosmos 2221 3.2 06:07:27 10° SW 06:11:16 32° WNW 06:15:10 10° N
STARLINK-1148 4.1 06:09:28 16° NW 06:11:35 34° N 06:14:37 10° ENE
Helios 1A Rocket 3.7 06:09:14 10° NNE 06:13:22 57° ESE 06:17:24 10° S
SL-16 R/B 3.4 06:10:17 16° W 06:13:23 24° NW 06:17:57 10° N
MOS 1-B 4.3 06:07:39 10° NNE 06:13:28 69° WNW 06:19:13 10° SSW
STARLINK-1158 4.1 06:11:38 16° NW 06:13:51 35° N 06:16:52 10° ENE
Aureole 2 Rocket 3.2 06:14:56 16° WNW 06:16:34 25° WSW 06:19:13 10° SSW
Cosmos 1190 Rocket 4.0 06:14:06 10° SW 06:19:19 62° WNW 06:24:37 10° NNE
FENGYUN 3A 3.9 06:14:24 10° N 06:19:40 50° WNW 06:24:53 10° SW
H-2A R/B 3.4 06:18:44 10° NNE 06:22:28 59° E 06:26:09 10° S
Cosmos 2369 Rocket 3.0 06:19:33 10° NW 06:24:26 30° WSW 06:29:18 10° SSW
Cosmos 614 Rocket 4.3 06:20:43 10° SW 06:25:37 43° WNW 06:30:36 10° NNE
STARLINK-1179 3.7 06:25:41 12° NW 06:27:50 32° NNE 06:30:15 10° E
STARLINK-1176 3.7 06:26:08 12° NW 06:28:19 32° NNE 06:30:44 10° E
Cosmos 1862 3.4 06:24:47 10° NNW 06:28:40 54° W 06:32:31 10° S
Cosmos 1603 4.0 06:23:36 10° SW 06:29:06 48° NW 06:34:37 10° NNE
Cosmos 2016 Rocket 4.1 06:23:30 10° NNW 06:29:37 59° W 06:35:46 10° S
CZ-4B DEB 4.4 06:26:28 10° N 06:31:48 52° WNW 06:37:04 10° SW
Cosmos 482 Debris 3.8 06:31:36 14° W 06:32:43 25° SSW 06:34:21 10° SSE
Cosmos 468 Rocket 4.5 06:27:47 10° NNW 06:33:06 67° ENE 06:38:21 10° SSE
Cosmos 1943 3.3 06:29:36 10° SW 06:35:05 53° WNW 06:40:38 10° NNE
STARLINK-1098 4.1 06:32:10 10° SW 06:36:07 60° SSE 06:40:05 10° ENE
Cosmos 676 Rocket 4.0 06:31:16 10° SSW 06:36:35 72° WNW 06:41:57 10° NNE
SMAP 3.5 06:33:03 10° NNE 06:37:43 70° ESE 06:42:21 10° S
Cosmos 1633 3.8 06:37:31 10° NW 06:40:21 21° W 06:43:10 10° SW
Cosmos 1484 Rocket 4.5 06:38:07 10° NNW 06:40:29 16° WNW 06:42:51 10° W
STARLINK-1123 4.0 06:36:43 10° SW 06:40:42 64° SSE 06:44:41 10° ENE
CZ-4B R/B 3.1 06:36:28 10° N 06:41:46 64° WNW 06:46:58 10° SSW
Cosmos 1656 Rocket 4.1 06:39:26 10° NW 06:44:45 42° WSW 06:50:03 10° S
STARLINK-1097 3.9 06:41:21 10° SW 06:45:20 69° SSE 06:49:21 10° ENE
COSMOS 2455 4.2 06:40:45 10° NNW 06:46:19 37° NE 06:51:52 10° ESE
Cosmos 1470 Rocket 3.7 06:42:38 10° N 06:47:07 83° E 06:51:36 10° S
Cosmos 2233 Rocket 4.0 06:41:36 10° N 06:47:53 80° W 06:54:11 10° S
NOSS 3-3 (A) 4.5 06:42:31 10° SSW 06:48:20 66° SE 06:54:55 10° NE
STARLINK-1153 3.6 06:46:27 10° WNW 06:49:16 41° NNE 06:52:05 10° E
NOAA 6 4.3 06:44:19 10° N 06:49:17 48° WNW 06:54:13 10° SW
STARLINK-1180 3.6 06:46:40 10° WNW 06:49:29 41° NNE 06:52:19 10° E
STARLINK-1099 3.8 06:46:01 10° SW 06:50:01 74° SSE 06:54:02 10° ENE
